{"data":{"norad_id":35946,"intl_designator":"2009-055A","name":"WORLDVIEW-2 (WV-2)","alt_names":[],"object_type":"PAYLOAD","status":"ACTIVE","operator":null,"country":"US","launch_date":"2009-10-08","launch_site_code":"AFWTR","launch_vehicle":null,"mission":null,"orbit_class":"UNKNOWN","rcs_meters":7.0279,"size_class":null,"mass_kg":null,"dimensions":null,"purposes":["earth_obs"],"wikipedia_slug":null,"has_3d_model":false,"image_url":null,"decayed_at":null,"tle_current":{"epoch":"2026-05-25T04:48:45.228672Z","epoch_age_seconds":57781,"freshness":"FRESH","line1":"1 35946U 09055A   26145.20052348  .00000103  00000+0  48457-4 0  9993","line2":"2 35946  98.4681 218.9684 0003153 294.6430  65.4429 14.37937002872343","mean_motion":14.37937002,"eccentricity":0.0003153,"inclination_deg":98.4681,"raan_deg":218.9684,"arg_perigee_deg":294.643,"mean_anomaly_deg":65.4429,"bstar":4.8457e-5,"rev_number":87234,"period_min":100.14346928948,"perigee_km":763.07041181943,"apogee_km":767.57507753443,"semimajor_km":7143.4597446769,"source":"CELESTRAK","updated_at":"2026-05-25T13:38:12.776966Z"}}}